Regional Weather Roundup
Issued by NWS Upton, NY

Current Version | Previous Version | Graphics & Text | Print | Product List | Glossary Off
Versions: 1 2 3 4 5 6 7 8 9 10 11 12 13 14 15 16 17 18 19 20 21 22 23 24 25 26 27 28 29 30 31 32 33 34 35 36 37 38 39 40 41 42 43 44 45 46 47

000
ASUS41 KOKX 031304
RWROKX

REGIONAL WEATHER ROUNDUP
NATIONAL WEATHER SERVICE NEW YORK NY
900 AM EDT MON AUG 03 2015

NOTE: "FAIR" INDICATES FEW OR NO CLOUDS BELOW 12,000 FEET WITH NO
SIGNIFICANT WEATHER AND/OR OBSTRUCTIONS TO VISIBILITY.

NYZ071-072-176-178-NJZ106-104-031400-
NEW YORK CITY METRO AREA


CITY           SKY/WX    TMP DP  RH WIND       PRES   REMARKS
CENTRAL PARK   SUNNY     78  61  55 CALM      29.87F
LAGUARDIA APRT MOSUNNY   81  60  48 SW10      29.84F
KENNEDY INTL   MOSUNNY   79  65  62 S9        29.86F
NEWARK/LIBERTY SUNNY     79  65  62 S10       29.84F
BRNX BOT. GARD   N/A     79  59  50 SW15      29.87R
TETERBORO      SUNNY     79  62  56 S10       29.83F
$$

NYZ177-179-078>081-031400-
LONG ISLAND NEW YORK

CITY           SKY/WX    TMP DP  RH WIND       PRES   REMARKS
FARMINGDALE    SUNNY     80  64  58 SW10      29.86F
ISLIP          MOSUNNY   80  64  58 SW12      29.85S
SHIRLEY        SUNNY     81  66  60 SW9       29.88S
WESTHAMPTON    SUNNY     80  72  76 S12       29.89S
MONTAUK POINT    N/A     79  72  79 VRB7      29.89S
$$

NYZ052-065-067-031400-
HUDSON VALLEY

CITY           SKY/WX    TMP DP  RH WIND       PRES   REMARKS
WHITE PLAINS   SUNNY     78  61  55 SW6       29.85S
NEWBURGH       NOT AVBL
MONTGOMERY     SUNNY     76  63  64 SW8       29.84S
POUGHKEEPSIE   SUNNY     80  61  52 SW7       29.82F
ALBANY         MOSUNNY   76  61  59 S12       29.78S
$$

NJZ001-105-106-008-010-013-015-019>022-104-031400-
NEW JERSEY

CITY           SKY/WX    TMP DP  RH WIND       PRES   REMARKS
NEWARK/LIBERTY SUNNY     79  65  62 S10       29.84F
TETERBORO      SUNNY     79  62  56 S10       29.83F
CALDWELL       SUNNY     76  62  62 SW5       29.85S
MORRISTOWN     SUNNY     77  63  61 S3        29.85F
SOMERVILLE     SUNNY     76  65  68 S6        29.84S
SUSSEX         SUNNY     73  62  68 VRB6      29.85F
ANDOVER          N/A     73  63  70 SW5       29.86S
TRENTON        SUNNY     77  66  68 SW8       29.86F
MILLVILLE      SUNNY     80  67  64 SW8       29.89S
ATLANTIC CITY  SUNNY     80  67  64 SW10      29.89S
WRIGHTSTOWN    NOT AVBL
TOMS RIVER       N/A     81  64  57 W8        29.88S
BELMAR         SUNNY     79  63  57 SW6       29.87F
$$

PAZ047>061-062-071-031400-
EASTERN PENNSYLVANIA

CITY           SKY/WX    TMP DP  RH WIND       PRES   REMARKS
PHILADELPHIA   MOSUNNY   79  65  62 SW13      29.87S
ALLENTOWN      SUNNY     75  63  66 NW5       29.86R
SCRANTON       SUNNY     76  61  59 VRB6      29.83F
$$

CTZ002-004>006-009-010-012-RIZ004-006-007-MAZ004-011-015-031400-
SOUTHERN NEW ENGLAND
 IN CT

CITY           SKY/WX    TMP DP  RH WIND       PRES   REMARKS
BRADLEY INTL   MOSUNNY   78  65  63 S6        29.83F
HARTFORD       SUNNY     79  66  64 S9        29.83F
DANBURY        SUNNY     77  60  55 SW8       29.86F
WTRBRY/OXFORD  SUNNY     75  63  64 SW6       29.89R
BRIDGEPORT     SUNNY     78  66  66 SW9       29.85S
MERIDEN        SUNNY     79  65  62 S8        29.85S
NEW HAVEN      MOSUNNY   77  66  68 SW7       29.86S
CHESTER        FAIR      75  66  73 S7        29.88F
GROTON         SUNNY     76  70  82 S7        29.86S
WILLIMANTIC    SUNNY     77  65  66 VRB6      29.86F

 IN RI

CITY           SKY/WX    TMP DP  RH WIND       PRES   REMARKS
PROVIDENCE     MOSUNNY   79  66  64 SW9       29.87S
BLOCK ISLAND     N/A     77  73  88 SW12      29.89F
WESTERLY       SUNNY     76  69  79 S12       29.88S

 IN MA

CITY           SKY/WX    TMP DP  RH WIND       PRES   REMARKS
BOSTON         SUNNY     77  67  71 SW10      29.85F
WORCESTER      SUNNY     73  62  68 SW9       29.88S
WESTFIELD      PTSUNNY   74  64  71 S7        29.84S
PROVINCETOWN   SUNNY     77  66  69 S10       29.88S
NANTUCKET      MOSUNNY   76  67  73 S10       29.90R
$$

ANZ330-335-338-340-345-350-353-355-031400-
COASTAL MARINE OBSERVATIONS


STATION/POSITION TIME  SKY/WX   TEMP    WIND        PRES    VSBY  WAVE
                                AIR SEA DIR/SP/G                  HT/PER
                 (UTC)          (F)     (DEG/KT/KT) (MB)    (MI)  (FT/S)
NY HARB ENTRANCE 1150            74 71  220/ 12/ 12 1010.9          3/ 7
4S FIRE IS       NOT AVBL
20S FIRE ISLAND  1150            76 76  210/  8/ 10 1011.2          3/ 8
GREAT SOUTH BAY  1215            77 80  220/  8/ 12   N/A
23SW MTP         1250            76 74  220/  8/ 10 1011.4          3/ 7
HUDSON CANYON    NOT AVBL
KINGS POINT      1200            76 70  190/  7/  9 1010.1
EXECUTION ROCKS  1200            81     190/  4/  6   N/A
CENTRAL LI SOUND NOT AVBL
EASTERN LI SOUND 1200            73 68  230/  6/ 10   N/A
ROBBINS REEF     1200            75     230/  7/  9 1009.8
$$


>>>>>>>>>>>>>>>>>>>>>>>>>>>> KEY <<<<<<<<<<<<<<<<<<<<<<<<<<<
>                                                          <
>     SKY/WX - SKY CONDITION/PRESENT WEATHER               <
>     TMP    - TEMPERATURE IN FAHRENHEIT                   <
>     DP     - DEWPOINT IN FAHRENHEIT                      <
>     RH     - RELATIVE HUMIDITY IN PERCENT                <
>     WIND   - DIRECTION AND SPEED IN MPH                  <
>     PRES   - MEAN SEA LEVEL PRESSURE IN INCHES OF HG     <
>     WCI    - WIND CHILL INDEX                            <
>     VSB    - VISIBILITY IN MILES                         <
>     HX     - HEAT INDEX                                  <
>     TC     - TEMPERATURE IN CELSIUS                      <
>     VRB    - VARIABLE WIND DIRECTION                     <
>                                                          <
>>>>>>>>>>>>>>>>>>>>>>>>>>>> KEY <<<<<<<<<<<<<<<<<<<<<<<<<<<




USA.gov is the U.S. government's official web portal to all federal, state and local government web resources and services.